Regional Weather Roundup
Issued by NWS Nashville, TN

Current Version | Previous Version | Text Only | Print | Product List | Glossary Off
Versions: 1 2 3 4 5 6 7 8 9 10 11 12 13 14 15 16 17 18 19 20 21 22 23 24 25 26 27 28 29 30 31 32 33 34 35 36 37 38 39 40 41 42 43 44 45 46 47 48 49 50

000
ASUS44 KOHX 040610
RWROHX
MIDDLE TENNESSEE HOURLY WEATHER ROUNDUP
NATIONAL WEATHER SERVICE NASHVILLE TN
100 AM CDT SAT JUL 04 2015

NOTE: "FAIR" INDICATES FEW OR NO CLOUDS BELOW 12,000 FEET WITH
NO SIGNIFICANT WEATHER AND/OR OBSTRUCTIONS TO VISIBILITY.

* THESE REPORTS ARE NOT UNDER NWS QUALITY CONTROL AND MAY NOT
  REPORT WEATHER SUCH AS PRECIPITATION AND FOG.


TNZ005>011-023>034-057-059-062>066-078-080-040700
...NORTHERN MIDDLE TENNESSEE...

CITY           SKY/WX    TMP DP  RH WIND       PRES   REMARKS
CLARKSVILLE    MOCLDY    71  69  93 SW3       29.91F
CROSSVILLE     CLOUDY    67  64  90 CALM      30.00S
DICKSON        PTCLDY    70  70 100 CALM      29.92F
NASHVILLE      MOCLDY    72  70  94 CALM      29.93S
PORTLAND       MOCLDY   N/A N/A N/A SW3       29.92F
ROCKWOOD       PTCLDY    66  65  97 S6        30.00
SMYRNA         MOCLDY    72  69  90 CALM      29.94S
SPARTA         CLEAR     68  68 100 CALM      29.95F
$$
TNZ056-058-060-061-075>077-079-093>097-040700
...SOUTHERN MIDDLE TENNESSEE...

CITY           SKY/WX    TMP DP  RH WIND       PRES   REMARKS
COLUMBIA       CLOUDY    72  72 100 S5        29.92F
MCMINNVILLE    CLOUDY    70  70 100 SW7       29.97S
SHELBYVILLE    CLOUDY    72  72 100 CALM        N/A
TULLAHOMA      MOCLDY    68  66  94 S5        29.96F
WINCHESTER     CLOUDY    68  66  94 SE3       29.97F
$$


...KEY TO REMARKS...
VSB - VISIBILITY IN MILES
WCI - WIND CHILL INDEX
HX  - HEAT INDEX




USA.gov is the U.S. government's official web portal to all federal, state and local government web resources and services.